TimeEDT,TemperatureF,Dew PointF,Humidity,Sea Level PressureIn,VisibilityMPH,Wind Direction,Wind SpeedMPH,Gust SpeedMPH,PrecipitationIn,Events,Conditions,WindDirDegrees,DateUTC
12:51 AM,81.0,66.0,60,30.01,10.0,SW,11.5,-,N/A,,Overcast,220,2013-07-10 04:51:00
1:51 AM,75.9,70.0,82,29.99,8.0,South,9.2,-,0.02,Rain,Light Rain,170,2013-07-10 05:51:00
2:51 AM,77.0,70.0,79,29.98,8.0,SSW,8.1,-,0.00,,Scattered Clouds,200,2013-07-10 06:51:00
3:51 AM,75.9,70.0,82,29.97,8.0,South,6.9,-,N/A,,Scattered Clouds,180,2013-07-10 07:51:00
4:51 AM,75.9,69.1,79,29.96,8.0,South,6.9,-,N/A,,Scattered Clouds,180,2013-07-10 08:51:00
5:51 AM,75.0,69.1,82,29.97,8.0,South,6.9,-,N/A,,Scattered Clouds,180,2013-07-10 09:51:00
6:51 AM,75.9,70.0,82,29.96,8.0,South,6.9,-,N/A,,Mostly Cloudy,180,2013-07-10 10:51:00
7:51 AM,78.1,70.0,76,29.96,8.0,South,8.1,-,N/A,,Overcast,180,2013-07-10 11:51:00
8:03 AM,78.8,71.6,78,29.96,8.0,South,8.1,-,N/A,,Overcast,190,2013-07-10 12:03:00
8:51 AM,79.0,71.1,77,29.94,8.0,South,9.2,-,N/A,,Mostly Cloudy,190,2013-07-10 12:51:00
9:38 AM,80.6,71.6,74,29.93,8.0,South,8.1,-,N/A,,Mostly Cloudy,170,2013-07-10 13:38:00
9:51 AM,81.0,71.1,72,29.93,8.0,South,8.1,-,N/A,,Mostly Cloudy,170,2013-07-10 13:51:00
10:37 AM,82.4,71.6,70,29.93,7.0,WSW,12.7,17.3,N/A,,Mostly Cloudy,240,2013-07-10 14:37:00
10:51 AM,82.9,71.1,67,29.93,8.0,WSW,12.7,-,N/A,,Mostly Cloudy,240,2013-07-10 14:51:00
11:17 AM,84.2,69.8,62,29.92,9.0,SW,10.4,-,N/A,,Mostly Cloudy,230,2013-07-10 15:17:00
11:51 AM,86.0,71.1,61,29.91,9.0,WSW,10.4,18.4,N/A,,Mostly Cloudy,240,2013-07-10 15:51:00
12:51 PM,87.1,70.0,57,29.89,9.0,SW,11.5,20.7,N/A,,Mostly Cloudy,230,2013-07-10 16:51:00
1:23 PM,82.4,71.6,70,29.89,7.0,SSW,18.4,25.3,0.00,Rain-Thunderstorm,Light Thunderstorms and Rain,210,2013-07-10 17:23:00
1:51 PM,81.0,70.0,69,29.88,10.0,SSW,12.7,-,0.00,,Overcast,210,2013-07-10 17:51:00
2:51 PM,84.9,72.0,65,29.85,8.0,SW,12.7,-,0.00,,Overcast,220,2013-07-10 18:51:00
3:51 PM,88.0,66.9,49,29.84,10.0,SW,17.3,23.0,N/A,,Mostly Cloudy,230,2013-07-10 19:51:00
4:51 PM,87.1,69.1,55,29.82,10.0,SSW,16.1,20.7,N/A,,Mostly Cloudy,200,2013-07-10 20:51:00
5:51 PM,87.1,66.9,51,29.80,10.0,SW,15.0,-,N/A,,Mostly Cloudy,220,2013-07-10 21:51:00
6:51 PM,91.0,66.9,45,29.82,10.0,SW,11.5,19.6,N/A,,Mostly Cloudy,220,2013-07-10 22:51:00
7:51 PM,88.0,66.0,48,29.83,10.0,WSW,16.1,21.9,N/A,,Mostly Cloudy,250,2013-07-10 23:51:00
8:51 PM,86.0,68.0,55,29.83,10.0,SW,9.2,-,N/A,,Mostly Cloudy,230,2013-07-11 00:51:00
9:51 PM,87.1,68.0,53,29.84,10.0,WSW,8.1,-,N/A,,Mostly Cloudy,240,2013-07-11 01:51:00
10:51 PM,84.9,69.1,59,29.83,10.0,SW,6.9,-,N/A,,Mostly Cloudy,220,2013-07-11 02:51:00
11:51 PM,84.0,69.1,61,29.82,10.0,SW,10.4,-,N/A,,Mostly Cloudy,230,2013-07-11 03:51:00